Flag for Brazil Weather past 2 weeks in Manaus, Amazonas, Brazil

Now
82 °F

Scattered clouds.


Feels Like: 88 °F
Forecast: 75 / 89 °F
Wind: 3 mph from Southeast

Location: Manaus Aeroporto

Current Time: Jun 30, 2015 at 11:23:37 AM

Latest Report: Jun 30, 2015 at 11:00 AM


Visibility: N/A

Pressure: 29.98 "Hg

Humidity: 74%

Dew point: 73 °F

Location of ManausLocation

Historic Weather in Manaus — Graph

°F

Manaus temperature yesterday

Maximum temperature yesterday: 88 °F (at 2:00 PM)
Minimum temperature yesterday: 75 °F (at 5:00 AM)
Average temperature yesterday: 82 °F

Past Weeks' High & Low Weather Summary

 TemperatureHumidityPressure
High90 °F (Jun 15, 2:00 PM)100% (Jun 21, 1:00 PM)30.07 "Hg (Jun 21, 1:00 PM)
Low73 °F (Jun 21, 10:00 AM)52% (Jun 25, 4:00 PM)29.80 "Hg (Jun 15, 4:00 PM)
Average80 °F79%29.94 "Hg
* Reported Jun 15 10:00 AM — Jun 30 10:00 AM, Manaus, Weather by CustomWeather, © 2015

Note: Actual official high and low records may vary slightly from our data, if they occured in-between our weather recording intervals... More about our weather records

Advertising

Manaus weather history for previous 24 hours

 ConditionsComfort  
Time TempWeatherWind HumidityBarometerVisibility
10:00 AM
Tue, Jun 30
84 °FScattered clouds.3 mph70%29.98 "HgN/A
9:00 AM82 °FPassing clouds.2 mph74%29.98 "HgN/A
8:00 AM81 °FScattered clouds.No wind74%29.98 "HgN/A
7:00 AM77 °FSunny.3 mph83%29.95 "Hg10 mi
6:00 AM77 °FClear.3 mph83%29.92 "Hg10 mi
5:00 AM77 °FClear.2 mph83%29.92 "Hg10 mi
4:00 AM77 °FClear.No wind83%29.89 "Hg10 mi
3:00 AM77 °FClear.2 mph83%29.89 "Hg10 mi
2:00 AM77 °FClear.3 mph83%29.89 "Hg10 mi
1:00 AM77 °FClear.5 mph83%29.92 "Hg10 mi
12:00 AM79 °FClear.7 mph79%29.95 "Hg10 mi
11:00 PM
Mon, Jun 29
79 °FClear.5 mph84%29.95 "Hg10 mi
10:00 PM81 °FClear.7 mph79%29.95 "Hg10 mi
9:00 PM81 °FClear.6 mph79%29.92 "Hg10 mi
8:00 PM82 °FClear.6 mph74%29.89 "Hg10 mi
7:00 PM82 °FPassing clouds.6 mph70%29.86 "HgN/A
6:00 PM84 °FPassing clouds.5 mph66%29.86 "HgN/A
5:00 PM86 °FPassing clouds.3 mph62%29.86 "HgN/A
4:00 PM86 °FPassing clouds.7 mph62%29.83 "HgN/A
3:00 PM88 °FPassing clouds.6 mph59%29.86 "HgN/A
2:00 PM88 °FPassing clouds.6 mph59%29.86 "HgN/A
1:00 PM86 °FScattered clouds.7 mph66%29.92 "HgN/A
12:00 PM86 °FScattered clouds.7 mph66%29.95 "HgN/A
11:00 AM86 °FScattered clouds.8 mph66%29.95 "HgN/A
Weather by CustomWeather, © 2015

See weather overviewHow to use our weather pages